Location: Unspecified
(64.9000°N, 0.0000°E)
Time: 11:00:01
(UTC+00:00)

A-11 Canister half - Pass Details

Date: 19 June 2019
Orbit: 1526 x 1683 km, 47.3° (Epoch: 22 July)

Event Time Altitude Azimuth Distance (km) Brightness Sun altitude
Rises 07:58:44 0° 241° (WSW) 4,694 11.2 33.4°
Reaches altitude 10° 08:02:24 10° 229° (SW) 3,701 10.8 33.8°
Maximum altitude 08:09:34 26° 178° (S) 2,649 10.8 34.5°
Drops below altitude 10° 08:16:45 10° 127° (SE) 3,706 12.3 35.2°
Sets 08:20:25 0° 116° (ESE) 4,701 12.6 35.6°
